User: anonymous   Login
Location: Caltech
(34.1382°N, 118.1253°W)
Time: 22:47:27
(UTC-07:00)
Language:

GPS 2-04 Rocket1 - Orbit

View from above orbital plane
View from above orbital plane
View from above satellite
View from above satellite

Ground track
Ground track

The orbit data is extracted from the following two-line orbital elements,

1 20303U 89085B   16182.80225390  .00001714  00000-0  65235-4 0  9993
2 20303  35.6313  70.6854 0113272 309.8559  49.2247 15.21217820446962
Epoch (UTC): 30 June 2016 19:15:14
Eccentricity: 0.0113272
inclination: 35.6313°
perigee height: 424 km
apogee height: 580 km
right ascension of ascending node: 70.6854°
argument of perigee: 309.8559°
revolutions per day: 15.21217820
mean anomaly at epoch: 49.2247°
orbit number at epoch: 44696

The dashed part of the orbit path shows where the satellite is in the earth's shadow,  

DLR